WetterOnline ( https://www.wetteronline.de )

Wetter aktuell Schweinfurt

Aktuelles Wetter: Bad Kissingen (266m)

6-stündlich | Neueste Meldungen
Ortszeit Temperatur Wetter
So, 28.02. 1:00 3.2° C bewölkt
Sa, 27.02. 19:00 4.9° C bedeckt
Sa, 27.02. 13:00 6.6° C wolkenlos
Sa, 27.02. 7:00 -2.3° C Nebel
Sa, 27.02. 1:00 0.8° C bedeckt
Fr, 26.02. 19:00 4.7° C bedeckt
Fr, 26.02. 13:00 7.7° C bedeckt
Fr, 26.02. 7:00 0.7° C bedeckt
Ortszeit Temperatur Wetter
So, 28.02. 2:00 2.2° C leicht bewölkt
So, 28.02. 1:50 2.2° C leicht bewölkt
So, 28.02. 1:40 2.3° C leicht bewölkt
So, 28.02. 1:30 2.9° C leicht bewölkt
So, 28.02. 1:20 2.9° C leicht bewölkt
So, 28.02. 1:10 3.0° C leicht bewölkt
So, 28.02. 1:00 3.2° C bewölkt
So, 28.02. 0:30 3.3° C bewölkt
So, 28.02. 0:00 3.9° C bedeckt
Sa, 27.02. 23:30 4.0° C bedeckt
Sa, 27.02. 23:00 4.5° C bedeckt
Ortszeit Relative Feuchte Sichtweite
So, 28.02. 1:00 74% -
Sa, 27.02. 19:00 72% 45 km
Sa, 27.02. 13:00 69% 45 km
Sa, 27.02. 7:00 97% 0.3 km
Sa, 27.02. 1:00 95% 18 km
Fr, 26.02. 19:00 81% 65 km
Fr, 26.02. 13:00 82% 24 km
Fr, 26.02. 7:00 96% 9 km
Ortszeit Relative Feuchte Sichtweite
So, 28.02. 2:00 79% 40 km
So, 28.02. 1:50 79% -
So, 28.02. 1:40 78% -
So, 28.02. 1:30 76% -
So, 28.02. 1:20 76% -
So, 28.02. 1:10 75% -
So, 28.02. 1:00 74% -
So, 28.02. 0:30 75% 40 km
So, 28.02. 0:00 72% 45 km
Sa, 27.02. 23:30 71% 50 km
Sa, 27.02. 23:00 67% 50 km
Ortszeit Niederschlagsmenge Niederschlagsart
So, 28.02. 1:00 0.0 l/m2 in 6 Std. -
Sa, 27.02. 19:00 0.0 l/m2 in 12 Std. -
Sa, 27.02. 13:00 0.0 l/m2 in 6 Std. -
Sa, 27.02. 7:00 0.0 l/m2 in 12 Std. -
Sa, 27.02. 1:00 0.0 l/m2 in 6 Std. -
Fr, 26.02. 19:00 0.1 l/m2 in 12 Std. Regen
Fr, 26.02. 13:00 0.1 l/m2 in 6 Std. Regen
Fr, 26.02. 7:00 0.0 l/m2 in 12 Std. -
Ortszeit Niederschlagsmenge Niederschlagsart
So, 28.02. 2:00 0.0 l/m2 in 1 Std. -
So, 28.02. 1:50 keine Meldung -
So, 28.02. 1:40 keine Meldung -
So, 28.02. 1:30 0.0 l/m2 in 1 Std. -
So, 28.02. 1:20 keine Meldung -
So, 28.02. 1:10 keine Meldung -
So, 28.02. 1:00 0.0 l/m2 in 1 Std. -
So, 28.02. 0:30 0.0 l/m2 in 1 Std. -
So, 28.02. 0:00 0.0 l/m2 in 1 Std. -
Sa, 27.02. 23:30 0.0 l/m2 in 1 Std. -
Sa, 27.02. 23:00 0.0 l/m2 in 1 Std. -
Ortszeit Stärke Spitze Richtung
km/h Bft. km/h Grad Sektor
So, 28.02. 1:00 4 1 18 160° S
Sa, 27.02. 19:00 11 2 32 100° O
Sa, 27.02. 13:00 14 3 25 70° O
Sa, 27.02. 7:00 0 0 7 - -
Sa, 27.02. 1:00 2 1 9 250° W
Fr, 26.02. 19:00 7 2 36 90° O
Fr, 26.02. 13:00 17 3 26 50° NO
Fr, 26.02. 7:00 4 1 7 50° NO
Ortszeit Stärke Spitze Richtung
km/h Bft. km/h Grad Sektor
So, 28.02. 2:00 4 1 7 120° SO
So, 28.02. 1:50 4 1 - - -
So, 28.02. 1:40 2 1 - - -
So, 28.02. 1:30 4 1 7 - -
So, 28.02. 1:20 4 1 - - -
So, 28.02. 1:10 4 1 - - -
So, 28.02. 1:00 4 1 11 160° S
So, 28.02. 0:30 7 2 11 90° O
So, 28.02. 0:00 4 1 14 80° O
Sa, 27.02. 23:30 7 2 14 100° O
Sa, 27.02. 23:00 9 2 19 110° O
Ortszeit Untergrenze Bedeckung Gattung
total tief tief mittel hoch
So, 28.02. 1:00 870 m - 7/8 - - -
Sa, 27.02. 19:00 660 m 8/8 8/8 - - -
Sa, 27.02. 13:00 - 0/8 0/8 - - -
Sa, 27.02. 7:00 <30 m 8/8 0/8 - - -
Sa, 27.02. 1:00 1410 m 8/8 8/8 - - -
Fr, 26.02. 19:00 1500 m 8/8 8/8 - - -
Fr, 26.02. 13:00 510 m 8/8 8/8 - - -
Fr, 26.02. 7:00 5400 m 8/8 8/8 - - -
Ortszeit Bedeckungsgrad in Achtel und Wolkenuntergrenze
So, 28.02. 2:00 2(840m)
So, 28.02. 1:50 2(840m)
So, 28.02. 1:40 3(840m)
So, 28.02. 1:30 2(840m)
So, 28.02. 1:20 2(840m)
So, 28.02. 1:10 4(840m)
So, 28.02. 1:00 7(870m)
So, 28.02. 0:30 7(870m)
So, 28.02. 0:00 8(870m)
Sa, 27.02. 23:30 8(840m)
Sa, 27.02. 23:00 8(840m)
Ortszeit Luftdruck NN (hPa) Tendenz (hPa in 3 Std.)
So, 28.02. 1:00 1040 + 0,1
Sa, 27.02. 19:00 1040 + 0,5
Sa, 27.02. 13:00 1039 + 0,1
Sa, 27.02. 7:00 1039 + 1,4
Sa, 27.02. 1:00 1037 + 1,1
Fr, 26.02. 19:00 1034 + 1,3
Fr, 26.02. 13:00 1031 + 1,0
Fr, 26.02. 7:00 1030 + 0,3
Ortszeit Luftdruck NN (hPa) Tendenz (hPa in 3 Std.)
So, 28.02. 2:00 1040 - 0,1
So, 28.02. 1:50 1040 keine Meldung
So, 28.02. 1:40 1040 keine Meldung
So, 28.02. 1:30 1040 - 0,1
So, 28.02. 1:20 1040 keine Meldung
So, 28.02. 1:10 1040 keine Meldung
So, 28.02. 1:00 1040 + 0,1
So, 28.02. 0:30 1040 + 0,1
So, 28.02. 0:00 1040 + 0,3
Sa, 27.02. 23:30 1039 + 0,1
Sa, 27.02. 23:00 1039 0,0
Ortszeit Schneehöhe (cm)
So, 28.02. 1:00 0
Sa, 27.02. 19:00 0
Sa, 27.02. 13:00 0
Sa, 27.02. 7:00 0
Sa, 27.02. 1:00 0
Fr, 26.02. 19:00 0
Fr, 26.02. 13:00 0
Fr, 26.02. 7:00 0
Ortszeit Schneehöhe (cm)
So, 28.02. 2:00 0
So, 28.02. 1:50 0
So, 28.02. 1:40 0
So, 28.02. 1:30 0
So, 28.02. 1:20 0
So, 28.02. 1:10 0
So, 28.02. 1:00 0
So, 28.02. 0:30 0
So, 28.02. 0:00 0
Sa, 27.02. 23:30 0
Sa, 27.02. 23:00 0
Link zu dieser Seite / Seite empfehlen

Das Wetter in ...